International Skating Union - Official Site

ISU Junior World Cup Collalbo
January 21-22, 2017

Draw | Lap Times | Index | World Cup

Referee: Debora  SIGHEL  (ITA)
Starter: Giovanni  TALAMINI  (ITA)
StartTime: EndTime: Air Temp: Ice Temp: Humidity:
14:25 15:09 6℃ -7.6℃ 68%
Result 3000m Ladies
Rankings as of Jan 21 2017 3:09PM
Rank: No.: Name: Nation: Time: Behind: Points:
1 50 Sanne  In 't Hof NED NED 4:19.53200m - 20.19 - (20.1)
600m - 51.58 - (31.3)
1000m - 1:24.21 - (32.6)
1400m - 1:57.82 - (33.6)
1800m - 2:32.18 - (34.3)
2200m - 3:07.12 - (34.9)
2600m - 3:42.82 - (35.6)
3000m - 4:19.53 - (36.6)
100
2 11 Mei  Han CHN CHN 4:20.02200m - 20.75 - (20.7)
600m - 52.52 - (31.7)
1000m - 1:24.55 - (32.0)
1400m - 1:57.30 - (32.7)
1800m - 2:31.21 - (33.9)
2200m - 3:06.72 - (35.5)
2600m - 3:43.10 - (36.3)
3000m - 4:20.02 - (36.9)
0.49 80
3 55 Karolina  Bosiek POL POL 4:22.93200m - 20.57 - (20.5)
600m - 53.43 - (32.8)
1000m - 1:26.88 - (33.4)
1400m - 2:01.05 - (34.1)
1800m - 2:35.45 - (34.3)
2200m - 3:10.91 - (35.4)
2600m - 3:47.27 - (36.3)
3000m - 4:22.93 - (35.6)
3.40 70
4 1 Viola   Feichtner AUT AUT 4:24.05200m - 21.66 - (21.6)
600m - 54.89 - (33.2)
1000m - 1:28.04 - (33.1)
1400m - 2:01.48 - (33.4)
1800m - 2:35.80 - (34.3)
2200m - 3:10.74 - (34.9)
2600m - 3:46.94 - (36.1)
3000m - 4:24.05 - (37.1)
4.52 60
5 48 Joy  Beune NED NED 4:26.91200m - 21.03 - (21.0)
600m - 54.53 - (33.5)
1000m - 1:28.34 - (33.8)
1400m - 2:02.38 - (34.0)
1800m - 2:37.08 - (34.7)
2200m - 3:12.93 - (35.8)
2600m - 3:49.91 - (36.9)
3000m - 4:26.90 - (36.9)
7.38 50
6 56 Karolina   Gasecka POL POL 4:32.83200m - 20.79 - (20.7)
600m - 54.09 - (33.3)
1000m - 1:28.72 - (34.6)
1400m - 2:04.23 - (35.5)
1800m - 2:40.32 - (36.0)
2200m - 3:17.71 - (37.3)
2600m - 3:55.42 - (37.7)
3000m - 4:32.83 - (37.4)
13.30 44
7 19 Natálie  Kerschbaummayr CZE CZE 4:33.57200m - 21.59 - (21.5)
600m - 56.25 - (34.6)
1000m - 1:31.55 - (35.2)
1400m - 2:07.30 - (35.7)
1800m - 2:43.19 - (35.8)
2200m - 3:20.08 - (36.8)
2600m - 3:56.64 - (36.5)
3000m - 4:33.57 - (36.9)
14.04 40
8 9 Xiangyu  Chen CHN CHN 4:34.50200m - 21.71 - (21.7)
600m - 54.92 - (33.2)
1000m - 1:29.02 - (34.0)
1400m - 2:04.78 - (35.7)
1800m - 2:41.78 - (37.0)
2200m - 3:19.16 - (37.3)
2600m - 3:56.86 - (37.7)
3000m - 4:34.50 - (37.6)
14.97 36
9 10 Weiping  Gan CHN CHN 4:36.49200m - 20.96 - (20.9)
600m - 52.77 - (31.8)
1000m - 1:25.51 - (32.7)
1400m - 2:00.49 - (34.9)
1800m - 2:37.86 - (37.3)
2200m - 3:16.66 - (38.7)
2600m - 3:56.61 - (39.9)
3000m - 4:36.49 - (39.8)
16.96 32
10 44 Miryeong  Jeon KOR KOR 4:36.91200m - 20.81 - (20.8)
600m - 53.66 - (32.8)
1000m - 1:27.87 - (34.2)
1400m - 2:04.06 - (36.1)
1800m - 2:41.46 - (37.4)
2200m - 3:19.57 - (38.1)
2600m - 3:57.65 - (38.0)
3000m - 4:36.91 - (39.2)
17.38 28
11 37 Deborah  Grisenti ITA ITA 4:39.76200m - 21.36 - (21.3)
600m - 55.27 - (33.9)
1000m - 1:29.51 - (34.2)
1400m - 2:05.21 - (35.6)
1800m - 2:42.10 - (36.8)
2200m - 3:20.43 - (38.3)
2600m - 3:59.75 - (39.3)
3000m - 4:39.76 - (40.0)
20.23 24
12 62 Karina  Akhmetova RUS RUS 4:40.25200m - 21.05 - (21.0)
600m - 55.06 - (34.0)
1000m - 1:30.27 - (35.2)
1400m - 2:06.24 - (35.9)
1800m - 2:43.48 - (37.2)
2200m - 3:21.16 - (37.6)
2600m - 4:00.29 - (39.1)
3000m - 4:40.25 - (39.9)
20.72 20
13 42 Nadezhda  Sidelnik KAZ KAZ 4:43.77200m - 24.22 - (24.2)
600m - 1:01.94 - (37.7)
1000m - 1:38.42 - (36.4)
1400m - 2:14.25 - (35.8)
1800m - 2:50.75 - (36.5)
2200m - 3:27.87 - (37.1)
2600m - 4:06.00 - (38.1)
3000m - 4:43.78 - (37.7)
24.25 18
14 57 Natalia  Jabrzyk POL POL 4:46.81200m - 21.06 - (21.0)
600m - 54.45 - (33.3)
1000m - 1:29.69 - (35.2)
1400m - 2:07.11 - (37.4)
1800m - 2:45.92 - (38.8)
2200m - 3:25.88 - (39.9)
2600m - 4:06.41 - (40.5)
3000m - 4:46.81 - (40.4)
27.28 16
15 29 Ellia  Smeding GBR GBR 4:50.81200m - 21.94 - (21.9)
600m - 56.67 - (34.7)
1000m - 1:33.64 - (36.9)
1400m - 2:11.35 - (37.7)
1800m - 2:49.76 - (38.4)
2200m - 3:29.35 - (39.5)
2600m - 4:09.35 - (40.0)
3000m - 4:50.81 - (41.4)
31.28 14
16 61 Elizaveta  Agafoshina RUS RUS 4:52.14200m - 21.20 - (21.1)
600m - 55.38 - (34.1)
1000m - 1:31.46 - (36.0)
1400m - 2:09.02 - (37.5)
1800m - 2:48.28 - (39.2)
2200m - 3:28.99 - (40.7)
2600m - 4:10.76 - (41.7)
3000m - 4:52.14 - (41.4)
32.61 12
17 73 Ida  Hallberg SWE SWE 4:52.27200m - 23.08 - (23.0)
600m - 59.66 - (36.5)
1000m - 1:37.42 - (37.7)
1400m - 2:15.42 - (37.9)
1800m - 2:53.68 - (38.2)
2200m - 3:32.61 - (38.9)
2600m - 4:12.19 - (39.5)
3000m - 4:52.28 - (40.0)
32.75 10
18 41 Mariya  Gromova KAZ KAZ 4:54.05200m - 22.23 - (22.2)
600m - 58.91 - (36.6)
1000m - 1:35.73 - (36.8)
1400m - 2:12.90 - (37.1)
1800m - 2:51.52 - (38.6)
2200m - 3:31.43 - (39.9)
2600m - 4:12.61 - (41.1)
3000m - 4:54.05 - (41.4)
34.52 8
19 28 Anni   Käsnänen FIN FIN 4:54.85200m - 22.88 - (22.8)
600m - 57.27 - (34.3)
1000m - 1:32.93 - (35.6)
1400m - 2:11.11 - (38.1)
1800m - 2:51.18 - (40.0)
2200m - 3:31.99 - (40.8)
2600m - 4:13.83 - (41.8)
3000m - 4:54.85 - (41.0)
35.32 6
20 77 Bianca  Stanica ROU ROU 4:55.63200m - 21.80 - (21.8)
600m - 57.39 - (35.5)
1000m - 1:35.36 - (37.9)
1400m - 2:13.47 - (38.1)
1800m - 2:52.67 - (39.1)
2200m - 3:32.93 - (40.2)
2600m - 4:14.18 - (41.2)
3000m - 4:55.63 - (41.4)
36.10 5
21 58 Olga   Kaczmarek POL POL 4:57.76200m - 21.68 - (21.6)
600m - 56.61 - (34.9)
1000m - 1:34.12 - (37.5)
1400m - 2:13.01 - (38.8)
1800m - 2:52.51 - (39.5)
2200m - 3:32.98 - (40.4)
2600m - 4:14.79 - (41.8)
3000m - 4:57.76 - (42.9)
38.23 4
22 74 Andreea  Haldan ROU ROU 4:59.07200m - 22.38 - (22.3)
600m - 58.24 - (35.8)
1000m - 1:35.18 - (36.9)
1400m - 2:13.38 - (38.1)
1800m - 2:53.24 - (39.8)
2200m - 3:34.47 - (41.2)
2600m - 4:16.24 - (41.7)
3000m - 4:59.06 - (42.8)
39.54 3
23 23 Kristiine  Kalev EST EST 5:01.18200m - 21.40 - (21.3)
600m - 56.38 - (34.9)
1000m - 1:32.92 - (36.5)
1400m - 2:12.24 - (39.3)
1800m - 2:53.69 - (41.4)
2200m - 3:36.39 - (42.6)
2600m - 4:19.43 - (43.0)
3000m - 5:01.18 - (41.7)
41.65 2
24 21 Sandra  Simková CZE CZE 5:02.80200m - 22.87 - (22.8)
600m - 58.48 - (35.6)
1000m - 1:35.69 - (37.2)
1400m - 2:14.62 - (38.9)
1800m - 2:55.15 - (40.5)
2200m - 3:37.34 - (42.1)
2600m - 4:19.96 - (42.6)
3000m - 5:02.80 - (42.8)
43.27 1
25 43 Da Som  Hwang KOR KOR DNF200m - 21.96 - (21.9)
600m - 1:14.58 - (52.6)
0
26 34 Noemi  Bonazza ITA ITA WDR 0